Date,TemperatureHighF,TemperatureAvgF,TemperatureLowF,DewpointHighF,DewpointAvgF,DewpointLowF,HumidityHigh,HumidityAvg,HumidityLow,PressureMaxIn,PressureMinIn,WindSpeedMaxMPH,WindSpeedAvgMPH,GustSpeedMaxMPH,PrecipitationSumIn
2013-6-1,85.2,81.8,80.0,78.3,77.4,76.3,92,87,77,29.92,29.85,18,10,23,0.00
2013-6-2,85.6,79.2,71.4,77.6,73.4,69.1,94,83,60,30.03,29.88,17,6,23,0.14
2013-6-3,86.7,80.4,75.2,74.1,70.7,64.2,85,73,50,29.96,29.84,9,5,18,0.00
2013-6-4,85.0,81.5,78.0,76.8,74.2,71.4,88,79,68,29.93,29.84,8,4,18,0.00
2013-6-5,86.6,82.5,78.9,77.8,76.2,74.2,90,82,71,29.90,29.78,12,5,18,0.00
2013-6-6,87.9,81.4,67.6,78.6,75.4,64.9,95,83,70,29.89,29.74,14,4,19,0.51
2013-6-7,83.9,78.1,71.7,73.5,70.5,67.9,93,78,63,29.94,29.85,9,4,18,0.01
2013-6-8,86.3,80.6,77.1,75.3,72.2,65.6,86,76,63,29.94,29.83,19,4,26,0.01
2013-6-9,85.8,80.1,73.3,78.8,75.2,69.7,90,85,74,29.96,29.85,15,5,23,0.14
2013-6-10,85.6,82.2,78.8,78.7,76.8,74.3,91,84,75,30.00,29.94,11,4,18,0.00
2013-6-11,86.0,83.2,80.6,79.8,78.1,76.0,89,85,78,30.07,29.98,13,6,18,0.00
2013-6-12,82.3,82.0,81.5,78.6,77.6,76.6,89,87,85,30.04,30.03,9,6,18,0.00
2013-6-14,89.0,86.3,83.3,78.9,77.4,74.1,84,75,65,29.99,29.90,6,4,18,0.00
2013-6-15,88.4,85.0,80.6,79.3,77.3,75.3,88,78,67,30.00,29.92,10,4,14,0.00
2013-6-19,86.6,84.0,82.5,78.6,77.9,77.2,86,82,76,30.00,29.94,12,9,19,0.00
2013-6-20,86.8,83.1,81.9,79.0,77.5,76.4,87,83,73,30.06,29.97,12,6,19,0.00
2013-6-21,88.6,84.5,82.0,78.8,77.3,74.3,87,79,64,30.12,30.03,9,6,12,0.00
2013-6-22,89.2,84.6,81.6,78.2,76.6,72.7,87,77,62,30.09,29.97,10,6,16,0.00
2013-6-23,85.0,84.4,83.9,76.6,76.4,76.3,78,77,76,30.02,29.98,9,7,0,0.00
2013-6-24,87.1,85.0,81.0,79.3,77.8,74.3,87,79,73,30.09,30.00,13,8,18,0.12
2013-6-25,87.2,84.5,82.5,79.3,78.0,76.6,86,81,74,30.06,29.96,14,9,19,0.00
2013-6-26,88.0,84.7,82.6,78.5,77.4,75.3,86,79,67,30.03,29.95,14,8,18,0.00
2013-6-27,89.3,84.9,82.2,78.3,76.9,74.4,85,77,63,30.04,29.94,11,6,15,0.00
2013-6-28,90.2,84.7,78.8,79.0,77.3,75.5,92,79,64,29.99,29.83,14,6,18,0.00
2013-6-29,91.3,84.8,79.9,80.7,78.5,75.3,92,82,63,29.86,29.73,14,8,18,0.00
2013-6-30,94.8,87.0,79.3,79.0,69.1,51.5,90,59,25,29.86,29.77,8,3,15,0.00